Location: Oberkirch
(48.5323°N, 8.0787°E)
Time: 10:26:55
(UTC+00:00)

SL-24 R/B - RUBIN 2 - Pass Details

Date: 16 February 2026
Orbit: 603 x 984 km, 64.6° (Epoch: 8 March)

Event Time Altitude Azimuth Distance (km) Brightness Sun altitude
Exits shadow 04:03:03 18° 352° (N) 1,573 5.6 -25.5°
Drops below altitude 10° 04:05:06 10° 18° (NNE) 1,999 6.5 -25.1°
Sets 04:07:53 0° 36° (NE) 2,880 7.6 -24.7°
